Theta_e
313 311 321 320 301 303 296 298 306 305 307 312 313 311 309 311 308 305 332 336 338 339 346 349 346 347 349 350 350 350 350 350 349 348 346 344 342 342 340 343 342 343 343 339 341 340 344 342 341
309 312 319 311 295 290 293 301 301 306 309 313 313 313 311 310 317 320 329 337 338 339 345 347 344 346 348 349 349 349 350 350 350 348 346 346 346 342 340 341 340 342 341 339 340 344 342 339 339
307 317 306 299 295 290 292 298 301 306 311 311 310 315 313 312 324 327 332 336 338 340 345 347 343 346 348 349 348 348 349 349 349 348 348 347 343 343 342 341 341 341 340 339 339 342 340 338 338
308 311 306 294 291 295 296 300 304 305 308 311 311 308 314 314 315 315 328 338 338 340 344 344 344 346 347 348 348 348 349 349 348 349 348 345 343 343 341 339 340 341 341 339 339 339 338 338 338
310 306 292 291 291 295 299 302 303 302 304 307 309 306 310 315 313 314 327 336 337 340 344 344 343 344 346 347 348 348 348 348 348 347 347 345 343 342 341 339 340 341 340 338 337 337 338 338 338
297 302 289 287 290 293 297 300 301 301 302 305 305 304 308 320 310 311 321 332 338 338 344 345 339 340 343 345 346 347 347 347 346 346 344 343 342 342 340 337 339 341 340 339 338 336 339 338 339
292 292 287 288 288 290 294 297 296 296 297 299 302 298 306 314 309 310 314 330 339 339 342 344 345 341 336 339 341 343 344 344 344 344 342 340 339 339 337 335 339 340 340 340 340 339 340 338 338
296 293 287 288 286 287 294 295 296 295 296 301 302 299 301 305 307 308 312 313 322 339 341 342 345 345 344 343 334 336 339 340 340 339 337 334 334 334 334 332 336 335 340 340 338 338 338 337 339
297 286 283 285 286 287 292 291 295 297 294 296 299 299 302 304 306 306 308 310 310 314 334 342 343 343 343 341 338 332 333 334 334 334 330 329 335 334 331 328 331 336 338 339 338 338 337 335 335
291 285 285 289 289 288 291 291 292 291 292 293 294 298 301 304 304 303 304 305 308 308 312 317 339 340 340 340 338 341 342 342 341 340 338 335 334 333 329 325 327 331 332 336 338 337 333 330 336
290 284 288 289 291 291 290 289 291 289 287 291 291 294 297 298 298 300 303 305 306 309 312 312 322 339 338 338 338 337 339 343 341 338 337 334 333 331 330 328 329 332 327 334 336 336 333 332 334
285 288 289 290 291 290 288 290 288 289 290 294 294 295 296 295 296 298 300 302 306 309 310 313 316 327 336 336 337 337 336 340 338 337 336 335 330 329 328 327 329 331 334 334 335 333 332 332 332
286 287 289 290 290 290 290 288 288 289 292 294 294 294 294 295 296 298 299 301 305 307 309 311 319 315 331 334 336 337 333 337 335 335 335 333 330 327 327 327 328 331 334 333 333 331 331 330 330
288 287 288 289 289 289 287 287 288 289 293 292 293 293 294 294 296 297 299 301 302 303 306 312 316 319 315 332 334 336 332 333 334 334 333 332 329 327 326 325 327 330 333 332 332 331 329 329 329
289 285 287 287 288 287 289 284 285 291 292 291 292 293 293 294 296 296 298 299 301 302 306 311 313 318 320 321 333 336 331 332 331 332 332 331 329 327 325 325 325 329 332 331 331 330 328 327 327
284 284 280 285 287 288 287 280 288 292 291 290 291 292 293 294 296 298 299 300 302 303 304 308 311 316 324 328 332 331 329 329 328 331 330 329 328 326 325 324 326 328 329 328 328 327 325 325 325
283 278 279 282 287 286 285 282 288 291 290 289 291 292 293 294 296 298 299 301 302 303 304 306 310 318 326 330 330 329 329 327 328 329 329 328 326 325 324 324 326 327 327 327 327 326 325 322 322
277 277 279 279 284 285 283 283 286 290 290 289 291 292 293 294 295 297 299 301 302 302 304 305 310 321 328 325 328 327 326 326 327 326 328 327 327 325 324 324 325 326 326 325 324 324 323 322 322
280 279 278 281 285 283 282 283 285 289 289 289 290 291 292 293 296 297 298 300 301 302 303 309 315 322 327 326 324 322 321 322 323 324 325 326 326 325 324 323 324 325 324 322 323 321 319 318 320
281 279 279 283 284 283 282 282 286 286 286 287 288 290 291 293 294 295 297 299 300 301 302 309 318 323 327 326 326 324 322 322 323 323 324 326 326 325 324 323 323 323 323 322 321 318 314 317 315
279 278 278 278 281 283 281 280 282 285 286 286 286 287 289 290 292 294 296 297 299 301 303 313 322 325 328 326 326 324 324 323 321 321 322 324 324 325 326 324 324 323 323 321 322 322 319 315 311
274 281 278 277 276 273 281 273 278 280 281 282 282 284 285 287 290 293 295 297 298 300 303 312 320 326 327 326 324 322 321 318 320 321 322 323 323 323 323 323 324 324 324 323 322 322 322 320 314
276 280 278 277 275 276 277 275 275 278 276 276 279 280 283 285 288 290 294 296 298 300 302 313 322 326 325 325 325 322 320 321 321 320 320 321 322 323 323 323 323 323 324 324 323 320 319 316 315
281 277 278 279 278 272 276 276 271 272 273 275 277 278 281 285 287 290 294 295 297 300 303 316 321 320 323 322 320 322 321 320 318 318 318 319 320 320 321 322 322 323 320 317 317 316 315 315 313
278 274 269 270 271 270 277 275 272 274 274 275 273 276 289 287 288 291 293 294 296 299 311 317 313 306 307 305 303 304 301 301 300 311 316 313 307 307 305 308 305 305 306 305 305 302 299 299 297
275 272 267 262 266 268 277 268 273 275 275 275 274 286 290 291 292 294 297 300 303 307 309 306 303 300 299 298 297 297 297 295 295 296 296 295 295 295 296 296 296 296 295 295 295 293 293 292 291
273 270 275 268 271 269 272 272 277 274 271 272 271 284 287 289 292 294 296 298 299 300 301 300 297 296 296 296 296 294 293 292 291 292 293 292 293 293 293 292 292 292 292 291 290 289 288 288 287
275 276 268 271 264 265 269 267 265 266 266 268 269 275 283 286 288 290 291 293 294 295 294 294 294 291 291 291 291 291 291 291 290 289 288 288 289 289 289 289 288 288 288 287 287 286 285 285 285
272 270 271 271 270 265 265 266 269 266 267 267 269 274 281 283 285 287 288 289 290 291 290 289 288 288 288 288 288 288 288 287 287 286 285 285 286 286 286 286 285 285 284 284 284 283 282 281 281
275 271 270 268 265 268 267 267 270 269 268 269 269 273 279 281 283 284 286 286 286 287 287 285 285 285 286 286 285 285 285 284 284 283 284 285 284 284 284 283 283 283 282 281 281 280 280 279 279
Wind_Speed
13 9 4 5 8 8 17 13 16 10 10 11 3 5 5 11 8 0 3 4 4 10 20 22 22 23 22 21 22 22 23 23 22 23 22 21 20 19 18 14 9 8 13 17 14 17 15 14 13
11 5 4 3 10 16 16 16 16 15 13 2 6 9 9 11 4 8 5 7 5 8 17 22 21 23 23 22 22 22 22 23 23 22 22 21 20 18 18 16 12 11 13 13 13 13 15 13 12
6 4 4 5 11 22 15 11 14 16 13 14 7 6 6 3 4 10 15 15 6 10 15 17 20 22 22 21 22 22 22 22 23 22 21 22 21 18 17 17 14 12 13 14 15 13 13 13 12
3 5 4 11 21 12 15 5 1 5 6 6 11 11 9 9 4 12 17 15 7 11 13 15 21 21 22 22 22 22 22 22 22 22 21 22 21 19 18 17 17 14 13 14 14 13 12 11 12
2 3 8 11 19 16 9 7 7 12 6 7 2 9 6 5 11 16 18 13 8 10 13 14 20 21 21 22 23 23 22 22 21 20 21 20 20 19 18 18 16 16 15 15 14 13 12 11 10
3 3 10 15 18 10 7 6 8 11 13 10 11 10 11 5 17 18 18 11 9 10 13 14 16 20 20 21 21 23 23 22 21 20 20 20 19 18 19 19 17 16 15 14 14 14 13 11 10
4 6 13 15 16 13 11 5 6 6 9 13 9 10 6 3 17 16 16 15 11 10 12 11 17 18 18 17 18 20 22 21 21 21 21 20 18 17 16 18 16 17 16 15 14 13 12 12 11
3 4 12 11 16 20 1 4 1 4 7 9 3 7 9 14 18 16 14 13 16 10 13 11 18 20 19 17 15 15 18 18 17 18 17 18 15 13 13 12 14 18 15 15 14 13 12 11 9
1 7 13 21 17 15 1 6 4 4 11 14 10 13 12 18 14 16 15 14 10 10 13 15 14 15 15 16 15 13 13 14 13 13 12 14 11 13 13 12 12 13 14 13 15 14 10 6 7
5 6 13 10 11 13 11 12 12 10 15 17 18 21 13 13 17 16 14 14 7 8 12 16 13 10 10 11 12 15 16 14 16 16 17 12 14 11 10 10 9 10 10 11 14 13 10 8 8
4 12 14 14 12 14 17 19 17 18 26 16 19 19 20 16 18 20 15 13 10 5 5 10 15 12 11 9 10 7 8 9 11 17 15 13 8 8 8 6 6 6 9 9 10 10 9 11 8
10 15 15 15 13 13 19 20 20 19 21 20 21 22 24 21 16 19 20 16 9 8 8 6 12 11 10 8 9 10 9 11 10 13 17 11 6 8 8 6 7 7 8 9 10 8 10 10 10
16 15 14 15 18 21 18 21 25 23 21 21 23 22 24 23 19 18 21 16 11 9 9 9 6 8 9 11 10 11 9 10 13 13 14 11 10 8 8 7 5 9 7 7 8 8 8 9 9
4 6 12 14 20 22 24 24 22 20 22 22 21 23 22 22 17 17 20 17 16 10 9 9 9 8 5 11 12 11 10 11 13 12 14 15 10 9 9 7 7 9 7 7 7 8 7 7 8
10 15 16 19 22 16 11 16 17 16 14 16 18 19 19 20 17 17 18 19 16 12 8 9 10 7 10 8 14 13 10 11 11 12 17 16 13 11 10 8 7 9 7 6 7 7 6 6 6
12 11 8 1 7 11 6 18 19 17 17 19 18 18 16 14 15 13 15 17 15 15 9 9 9 12 13 12 13 11 10 10 10 12 12 17 15 13 10 8 8 9 8 5 7 7 6 6 7
6 10 14 17 5 11 13 16 13 11 16 20 18 16 15 14 15 15 15 16 14 13 12 10 9 11 9 10 4 9 14 11 10 11 12 16 14 13 10 9 10 11 7 6 7 7 7 7 6
15 19 20 19 7 11 19 26 27 22 19 21 20 20 19 18 20 15 16 15 13 12 14 11 8 11 10 7 6 6 8 9 10 9 11 16 13 13 10 9 10 10 9 7 6 9 7 7 7
16 17 21 23 19 14 17 21 23 20 16 17 18 18 19 20 19 14 15 14 13 11 13 13 10 12 8 6 10 7 6 9 5 6 10 15 13 14 11 8 11 10 10 10 9 7 8 7 6
17 20 23 13 3 13 16 21 17 12 14 15 12 14 15 16 16 14 14 13 12 12 12 12 11 9 9 7 8 6 9 6 7 5 5 12 12 14 13 13 11 13 9 12 11 9 3 6 7
18 19 17 17 20 20 18 13 6 5 9 15 16 14 13 12 15 14 14 11 8 14 10 11 11 10 11 9 8 6 6 5 8 10 7 10 12 14 14 14 11 10 9 9 12 11 12 7 6
18 12 24 24 16 7 3 3 12 15 14 21 21 19 17 16 14 13 13 12 8 12 11 9 7 12 11 12 10 11 10 8 7 9 8 9 11 10 10 10 12 12 10 11 10 10 10 9 8
13 28 25 23 16 10 7 7 6 16 25 30 28 27 23 18 15 14 12 11 10 10 9 7 7 10 6 8 9 9 7 6 5 6 10 8 7 8 10 10 11 10 9 11 9 9 9 6 7
23 21 13 2 4 4 1 4 6 12 24 29 28 29 25 18 12 11 11 11 8 8 8 8 5 9 4 7 9 2 7 6 6 10 8 6 5 6 7 8 8 8 7 5 4 3 5 5 3
18 20 5 3 4 5 11 3 6 19 26 21 30 33 11 5 6 6 4 2 4 5 4 9 13 19 12 16 15 14 16 17 16 6 6 7 7 7 11 9 10 8 10 10 10 10 11 11 9
18 11 5 5 6 6 7 9 4 23 22 20 26 18 13 9 7 7 8 6 5 1 15 14 17 20 15 18 17 16 19 12 12 16 12 12 12 11 14 15 15 15 17 14 13 11 11 13 12
13 13 7 5 6 4 5 7 2 29 31 33 29 22 19 18 15 13 14 12 14 18 13 17 21 22 20 20 15 18 19 20 17 18 15 11 15 13 16 17 19 17 17 17 15 13 14 13 12
9 11 2 3 6 6 5 6 11 28 29 31 31 28 21 19 17 15 15 15 15 17 16 20 23 23 20 20 18 15 19 21 19 17 18 16 14 17 17 18 20 17 16 14 15 14 12 16 12
15 10 5 2 5 4 5 5 10 17 18 24 25 24 20 19 16 15 15 15 16 16 18 18 21 22 20 20 18 18 17 26 18 18 18 16 16 19 16 15 20 20 18 17 18 17 17 18 15
22 13 6 4 5 4 4 5 13 16 17 19 22 21 20 19 17 16 16 16 17 20 19 21 17 21 19 19 19 19 19 23 19 20 20 18 20 19 18 20 20 21 19 18 18 18 15 16 16
Wind_Direction
315 315 265 218 231 235 245 232 230 223 228 226 208 218 253 242 236 236 37 303 296 210 178 176 168 168 166 162 159 162 161 160 161 156 157 158 159 161 155 154 165 156 155 147 152 154 136 128 123
321 307 226 205 242 237 237 229 231 240 233 155 238 247 237 256 271 299 16 1 283 210 179 177 171 171 168 162 159 159 160 161 159 158 158 160 161 162 161 161 160 162 160 154 166 146 136 133 130
294 273 228 225 239 240 257 216 240 241 256 267 263 250 284 252 56 358 346 320 273 195 180 178 169 172 169 163 163 161 161 162 161 165 165 164 159 165 165 160 161 167 170 168 170 149 142 144 142
326 194 220 239 241 246 278 172 121 230 249 258 255 262 241 53 23 348 333 328 250 201 179 162 169 173 170 167 165 165 166 167 167 168 167 162 162 168 165 164 164 167 171 171 164 155 159 156 152
259 250 246 243 256 259 248 268 271 260 271 253 241 252 238 100 9 358 349 330 275 210 179 166 169 171 174 173 169 169 171 171 172 169 160 164 167 168 165 170 167 165 171 175 167 165 166 165 166
229 287 243 255 260 244 267 311 266 254 262 277 272 279 262 102 13 354 347 334 283 224 189 173 173 171 176 178 177 173 174 175 175 167 163 164 171 170 166 174 175 167 171 164 172 174 171 165 176
261 241 262 285 278 265 253 320 265 274 268 269 316 255 256 217 357 349 353 347 285 230 188 194 178 175 172 181 183 180 176 177 175 168 166 163 170 170 176 178 175 172 171 166 171 168 170 172 183
306 274 253 246 263 272 297 308 304 300 276 322 276 262 265 335 341 337 344 360 351 258 208 200 192 186 183 185 183 180 178 176 173 170 166 160 157 168 178 184 179 179 166 172 166 169 166 186 185
176 245 258 259 275 276 313 286 280 290 275 283 265 279 294 307 319 329 332 340 357 352 290 211 206 199 187 185 186 174 177 169 166 159 158 158 164 174 177 187 185 175 167 170 166 161 162 182 179
227 245 268 314 286 290 300 290 299 280 274 261 267 280 275 286 307 311 315 319 331 333 326 329 220 202 190 185 181 187 181 181 179 178 175 178 176 176 177 189 183 181 172 172 158 156 155 181 174
195 244 270 263 266 280 283 274 275 269 264 274 277 284 292 292 299 297 290 300 301 297 294 314 314 207 185 191 176 196 177 181 184 182 181 183 175 161 166 190 192 186 182 188 176 164 185 197 193
249 241 252 266 270 264 266 289 272 261 277 293 287 282 284 286 280 282 287 292 287 282 290 283 264 294 204 193 179 183 181 181 184 183 185 176 172 165 166 179 194 203 191 197 197 188 191 192 204
250 263 268 273 269 267 277 262 266 274 285 274 268 269 274 277 276 273 277 277 273 276 279 274 221 278 262 203 192 177 179 199 184 186 185 178 177 163 162 176 186 213 200 204 189 191 188 194 196
280 269 278 274 268 273 274 274 276 272 265 270 267 267 264 265 269 267 270 271 274 269 266 271 262 246 259 241 191 183 184 190 182 189 187 182 174 162 166 172 184 217 207 202 195 194 194 198 199
282 281 277 267 267 274 289 264 246 266 272 273 271 270 266 264 267 257 269 276 281 279 268 259 258 255 234 261 196 187 184 187 181 188 189 184 177 167 165 170 188 207 205 208 195 199 205 203 202
280 271 284 152 285 271 252 277 271 277 272 271 271 269 265 259 262 258 271 275 278 280 260 265 273 262 249 241 222 181 178 189 182 187 186 180 171 165 168 174 197 202 208 202 196 197 202 211 205
220 296 301 302 293 273 247 283 279 284 274 280 275 274 263 250 258 274 270 271 276 285 280 259 243 252 254 266 229 184 176 177 191 187 190 183 166 165 169 179 200 204 203 195 200 203 210 207 212
311 305 295 289 271 285 273 275 283 282 276 272 268 267 262 264 275 284 276 274 275 281 283 277 253 245 225 208 212 183 177 181 180 176 197 187 180 170 172 184 195 203 203 198 199 208 208 215 214
293 284 283 282 289 284 281 285 291 302 293 279 270 266 263 268 276 281 275 278 276 272 272 282 233 236 229 218 181 157 191 164 163 170 199 193 191 187 185 188 196 204 205 209 195 197 199 207 210
286 296 292 286 272 293 294 293 306 28 35 16 348 309 276 273 274 271 271 277 274 273 275 274 233 234 208 183 158 171 165 156 158 162 172 210 191 198 194 194 200 207 207 209 207 188 178 214 190
308 297 291 298 310 290 271 261 60 30 25 11 7 347 330 318 297 277 273 270 280 278 276 274 226 223 180 179 156 150 153 158 168 186 177 205 201 200 201 200 202 207 210 211 215 211 208 206 206
308 317 307 293 296 276 11 290 54 356 354 352 345 340 326 312 304 297 279 270 255 279 300 282 235 210 178 176 165 175 167 173 184 187 177 188 198 203 200 203 207 208 212 216 211 220 220 221 214
300 308 302 289 271 264 237 224 46 14 353 343 336 329 316 306 300 297 293 271 266 272 284 269 238 178 151 191 181 189 190 210 163 142 167 167 182 200 204 206 212 219 219 228 217 210 218 223 223
340 317 309 347 192 187 201 258 51 16 346 335 332 318 307 290 287 285 288 274 268 264 268 209 116 73 153 86 57 275 182 172 172 178 172 171 168 187 205 201 213 215 208 205 195 205 240 240 251
354 350 4 54 11 39 7 33 62 5 352 338 326 315 327 275 262 288 307 222 249 261 232 139 82 71 63 71 71 67 67 46 43 14 117 80 57 40 25 54 62 59 50 48 62 62 49 37 52
351 12 15 2 357 330 350 8 79 7 341 335 338 332 52 65 70 77 81 62 25 74 86 91 81 77 68 63 61 73 72 67 54 53 55 67 69 51 52 62 57 56 61 58 64 65 63 59 56
340 4 313 260 222 248 20 10 164 349 346 350 346 360 25 31 31 43 49 47 62 68 76 86 81 69 63 68 59 65 71 70 62 56 59 59 63 67 56 67 66 55 63 62 61 67 61 63 58
5 353 354 3 11 9 35 51 346 346 341 337 347 350 12 20 23 32 46 51 59 68 70 73 77 75 73 75 68 65 75 77 68 69 63 59 72 72 60 58 65 65 59 60 55 57 53 59 51
11 13 344 278 7 347 330 63 2 345 341 333 339 345 6 17 19 31 45 51 60 71 68 69 68 78 75 72 73 69 72 70 63 63 59 49 58 57 63 61 63 59 56 55 61 59 57 59 54
32 8 347 337 19 18 295 77 19 356 348 343 343 350 5 16 20 27 43 52 58 61 62 60 67 68 66 69 70 65 64 72 61 64 62 59 60 59 59 59 63 62 60 61 65 66 60 60 56